Flag for China Weather past 2 weeks in Shantou, Guangdong, China

Now
68 °F

Clear.


Feels Like: 68 °F
Forecast: 52 / 65 °F
Wind: 8 mph from Southwest

Location: Shantou Airport

Current Time: Jan 30, 2015 at 4:46:30 PM

Latest Report: Jan 30, 2015 at 4:00 PM


Visibility: 4 mi

Pressure: 30.12 "Hg

Humidity: 60%

Dew point: 54 °F

Location of ShantouLocation

Historic Weather in Shantou — Graph

°F

Shantou temperature yesterday

Maximum temperature yesterday: 70 °F (at 2:00 PM)
Minimum temperature yesterday: 52 °F (at 7:00 AM)
Average temperature yesterday: 60 °F

Past Weeks' High & Low Weather Summary

 TemperatureHumidityPressure
High73 °F (Jan 21, 3:00 PM)100% (Jan 17, 1:00 AM)30.36 "Hg (Jan 17, 1:00 AM)
Low45 °F (Jan 20, 6:00 AM)19% (Jan 22, 2:00 PM)30.01 "Hg (Jan 26, 3:00 PM)
Average58 °F75%30.15 "Hg
* Reported Jan 15 3:00 PM — Jan 30 3:00 PM, Shantou, Weather by CustomWeather, © 2014

Note: Actual official high and low records may vary slightly from our data, if they occured in-between our weather recording intervals... More about our weather records

Advertising

Shantou weather history for previous 24 hours

 ConditionsComfort  
Time TempWeatherWind HumidityBarometerVisibility
3:00 PM
Jan 30
70 °FClear.3 mph53%30.12 "Hg4 mi
2:00 PM68 °FClear.3 mph53%30.15 "Hg4 mi
1:00 PM66 °FPassing clouds.6 mph56%30.18 "HgN/A
12:00 PM66 °FPassing clouds.3 mph56%30.21 "HgN/A
11:00 AM63 °FPassing clouds.3 mph64%30.24 "HgN/A
10:00 AM61 °FPassing clouds.8 mph68%30.24 "HgN/A
9:00 AM59 °FPassing clouds.6 mph72%30.21 "HgN/A
8:00 AM55 °FPassing clouds.1 mph88%30.21 "Hg5 mi
7:00 AM54 °FFog.1 mph100%30.18 "Hg2 mi
6:00 AM54 °FFog.1 mph100%30.15 "Hg1 mi
5:00 AM55 °FFog.1 mph94%30.12 "Hg2 mi
4:00 AM55 °FFog.1 mph100%30.12 "Hg2 mi
3:00 AM54 °FFog.1 mph100%30.12 "Hg1 mi
2:00 AM54 °FFog.No wind100%30.12 "Hg2 mi
1:00 AM54 °FFog.1 mph100%30.12 "Hg3 mi
12:00 AM55 °FClear.1 mph94%30.15 "Hg4 mi
11:00 PM
Jan 29
55 °FClear.1 mph94%30.15 "Hg4 mi
10:00 PM57 °FClear.3 mph94%30.12 "Hg4 mi
9:00 PM59 °FClear.3 mph82%30.12 "Hg4 mi
8:00 PM59 °FClear.6 mph82%30.12 "Hg4 mi
7:00 PM61 °FClear.6 mph77%30.09 "Hg4 mi
6:00 PM63 °FClear.10 mph73%30.07 "Hg4 mi
5:00 PM66 °FClear.8 mph60%30.07 "Hg4 mi
4:00 PM70 °FClear.6 mph53%30.04 "Hg5 mi
Weather by CustomWeather, © 2014

See weather overviewHow to use our weather pages